Regional Weather Roundup
Issued by NWS

Home | Current Version | Previous Version | Graphics & Text | Print | Product List | Glossary On
Versions: 1 2 3 4 5 6 7 8 9 10 11 12 13 14 15 16 17 18 19 20 21 22 23 24 25 26 27 28 29 30 31 32 33 34 35 36 37 38 39 40 41 42 43 44 45 46 47 48 49 50
000
ASUS43 KLMK 170410
RWRKY
KENTUCKY REGIONAL WEATHER ROUNDUP
NATIONAL WEATHER SERVICE LOUISVILLE KY
1100 PM EST MON JAN 16 2017

NOTE "FAIR" INDICATES FEW OR NO CLOUDS BELOW 12,000 FEET
WITH NO SIGNIFICANT WEATHER AND/OR OBSTRUCTIONS TO VISIBILITY.

KYZ001>023-026-027-061>063-070>075-170500-
WESTERN AND SOUTH CENTRAL KENTUCKY

CITY           SKY/WX    TMP DP  RH WIND       PRES   REMARKS
PADUCAH        RAIN      61  58  90 S12       29.92F
HENDERSON      MOCLDY    59  54  82 S13       29.95F
OWENSBORO      LGT RAIN  57  55  93 S9        30.00F
HOPKINSVILLE   LGT RAIN  61  61 100 S8        30.02R
BOWLING GREEN  CLOUDY    65  52  62 S21G26    30.04F
GLASGOW        CLOUDY    62  51  69 S9        30.05F
$$

KYZ024-025-028>034-038-045-046-053-170500-
NORTH CENTRAL KENTUCKY

CITY           SKY/WX    TMP DP  RH WIND       PRES   REMARKS
LOUISVILLE/SDF LGT RAIN  57  53  86 CALM      30.04R
LOUISVILLE/LOU LGT RAIN  59  53  80 CALM      30.05R
FORT KNOX      LGT RAIN  58  54  86 S9        30.02R
$$

KYZ035>037-039>044-047>052-055>060-089>105-170500-
NORTHEAST KENTUCKY

CITY           SKY/WX    TMP DP  RH WIND       PRES   REMARKS
LEXINGTON      CLOUDY    59  52  77 S14       30.07F
COVINGTON      CLOUDY    54  52  93 SE9       30.04F
FRANKFORT      CLOUDY    58  52  80 SE9       30.04F
$$

KYZ054-064>069-076>088-106>120-170500-
SOUTHEAST KENTUCKY

CITY           SKY/WX    TMP DP  RH WIND       PRES   REMARKS
JACKSON        CLOUDY    59  50  72 VRB3      30.13F
LONDON         CLOUDY    59  50  72 S7        30.13F
SOMERSET       CLOUDY    59  52  77 S5        30.13S
MIDDLESBORO    CLOUDY    54  52  95 S3        30.17F
MONTICELLO     CLOUDY    61  54  77 SE9       30.12F
$$





USA.gov is the U.S. government's official web portal to all federal, state and local government web resources and services.